Regional Weather Roundup
Issued by NWS Lake Charles, LA

Home | Current Version | Previous Version | Text Only | Print | Product List | Glossary On
Versions: 1 2 3 4 5 6 7 8 9 10 11 12 13 14 15 16 17 18 19 20 21 22 23 24 25 26 27 28 29 30 31 32 33 34 35 36 37 38 39 40 41 42 43 44 45 46 47 48 49 50
000
ASUS44 KLCH 271510
RWRLCH
RWRLCH
REGIONAL WEATHER ROUNDUP
NATIONAL WEATHER SERVICE LAKE CHARLES LA
1000 AM CDT WED AUG 27 2014

Note: "fair" indicates few or no clouds below 12,000 feet with no
significant weather and/or obstructions to visibility.


ACROSS SOUTHEAST TEXAS

CITY           SKY/WX    TMP DP  RH WIND       PRES   REMARKS
BEAUMONT       MOSUNNY   86  72  62 NE12      30.00R
BEAUMONT CITY    N/A     86  73  66 NE10      30.01R
ORANGE         MOSUNNY   84  73  69 NE8       30.02R
JASPER         SUNNY     84  67  56 NE5       30.05S
$$

ACROSS CENTRAL LOUISIANA

CITY           SKY/WX    TMP DP  RH WIND       PRES   REMARKS
LEESVILLE      PTSUNNY   84  68  58 E5        30.04R
FULLERTON      PTSUNNY   84  68  58 CALM      30.01S
ALEXANDRIA INT SUNNY     84  68  58 E7        30.02S
ESLER FIELD    SUNNY     83  69  62 VRB3      30.04S
DERIDDER       CLOUDY    81  69  66 CALM      30.05R HAZE
OAKDALE        MOSUNNY   83  74  74 NE3       30.03R
OPELOUSAS        N/A    N/A N/A N/A E7        30.02R
$$

ACROSS SOUTHWEST AND SOUTH CENTRAL LOUISIANA

CITY           SKY/WX    TMP DP  RH WIND       PRES   REMARKS
SULPHUR        MOSUNNY   86  75  70 E7        30.01S
LAKE CHARLES   MOSUNNY   83  74  74 E12       30.00S
CHENNAULT INT  NOT AVBL
CAMERON PHI    SUNNY     82  75  78 E10       30.00S
DEQUINCY       PTSUNNY   84  72  68 CALM      30.02R
JENNINGS         N/A     83  75  76 E8        30.01S
LAFAYETTE      MOSUNNY   81  74  79 E6        30.01S
NEW IBERIA     MOSUNNY   84  76  76 NE8       30.02R
ABBEVILLE        N/A     84  77  79 E8        30.01S
PATTERSON        N/A     82  79  89 E10       30.04R
SALT POINT       N/A     87  77  72 SE9       29.99R
$$

SELECTED SITES ACROSS THE REGION

CITY           SKY/WX    TMP DP  RH WIND       PRES   REMARKS
HOUSTON BUSH   MOSUNNY   86  72  62 NE10      30.01R
HOUSTON HOBBY  MOSUNNY   86  71  60 NE15      30.00R
GALVESTON      HVY RAIN  79  76  90 NE14      29.99R FOG
COLLEGE STAT   SUNNY     86  69  56 VRB7      30.03R
CONROE         SUNNY     85  70  60 NE7       30.03R
HUNTSVILLE     SUNNY     85  69  58 E5        30.04R
LUFKIN         SUNNY     86  69  56 NE5       30.05R
SHREVEPORT     MOSUNNY   88  65  46 CALM      30.06R
MONROE         SUNNY     85  68  56 VRB5      30.07S
NATCHEZ MS     SUNNY     82  72  69 SE7       30.06S
BATON ROUGE    SUNNY     85  73  67 E10       30.03R
N.O. INTL ARPT PTSUNNY   86  74  67 NE14      30.02R
SLIDELL        MOSUNNY   87  72  60 N5        30.02R
$$

MARINE REPORTS

STATION/POSITION TIME  TEMP    WIND        PRES    VSBY  WAVE
                       AIR SEA DIR/SP/G                  HT/PER
                 (UTC) (F)     (DEG/KT/KT) (MB)    (MI)  (FT/S)
BUOY 30 S HIGH I 1500   82 87   90/ 14/ 17 1014.8R         4/ 5
SEA RIM ST PARK  1500   80     150/  6/  7 1016.5R
PORT ARTHUR      1500      87   60/  6/ 14 1015.9R
SABINE PASS N    1500   81 86   60/  7/ 10 1015.9R
TEXAS POINT      1500   81 85   60/ 11/ 13 1016.0R
CALCASIEU PASS   1500   81 85   80/  9/ 13 1016.8R
LK CHARLES BEACH 1500   83 88              1016.8S
MARSH ISLAND     NOT AVBL
FRESH WATER LOCK 1500   81 85   40/ 10/ 12 1015.7S
AMERADA PASS     1500   82 82   80/  5/  9 1015.8R
$$



USA.gov is the U.S. government's official web portal to all federal, state and local government web resources and services.